カタログに戻る

SCOUT B DEB

LostUNKNOWN
NORAD 29177·DEBRIS·🇺🇸 United States

打ち上げ Aug 10, 1965 から Wallops Flight Facility

Loading…

次のパス (今後24時間)

TLE

古いSource: Space-Track

元期: Jun 14, 2025, 05:07 UTC

1 29177U 65063AB  25165.21377764  .00000239  00000-0  20770-2 0  9994
2 29177  69.2115 147.6443 0668612 326.8244  46.3706 11.89089647 25803

AllMySatでSCOUT B DEBをリアルタイム追跡

Download on the App Store